Regional Weather Roundup
Issued by NWS Sioux Falls, SD

Home | Current Version | Previous Version | Graphics & Text | Print | Product List | Glossary On
Versions: 1 2 3 4 5 6 7 8 9 10 11 12 13 14 15 16 17 18 19 20 21 22 23 24 25 26 27 28 29 30 31 32 33 34 35 36 37 38 39 40 41 42 43 44 45 46 47 48 49 50
000
ASUS43 KFSD 010110
RWRFSD

WEATHER ROUNDUP FOR SE SOUTH DAKOTA/SW MINNESOTA/NW IOWA
NATIONAL WEATHER SERVICE SIOUX FALLS SD
800 PM CDT TUE JUN 30 2015

NOTE: "FAIR" INDICATES FEW OR NO CLOUDS BELOW 12,000 FEET WITH NO
SIGNIFICANT WEATHER AND OR OBSTRUCTIONS TO VISIBILITY.


SDZ038>040-050-052>070-010200-
SOUTHEAST SOUTH DAKOTA

CITY           SKY/WX    TMP DP  RH WIND       PRES   REMARKS
BROOKINGS      CLOUDY    72  61  68 E10       29.93R
CHAMBERLAIN    NOT AVBL
HURON          CLOUDY    71  70  96 E6        29.86F FOG
MADISON        FAIR      70  70 100 CALM      29.92R
MITCHELL       LGT RAIN  70  68  93 E5        29.88F
SIOUX FALLS    LGT RAIN  70  66  87 CALM      29.90S
WINNER         FAIR      76  61  59 E14       29.86F
YANKTON        CLOUDY    70  66  88 N5        29.91R
$$

MNZ071-072-080-081-089-090-097-098-010200-
SOUTHWEST MINNESOTA

CITY           SKY/WX    TMP DP  RH WIND       PRES   REMARKS
FAIRMONT       CLOUDY    70  61  73 CALM      29.92R
JACKSON        CLOUDY    70  63  78 NE5       29.94R
LUVERNE        CLOUDY    73  68  83 E3        29.90F
MARSHALL       CLOUDY    70  61  73 SE5         N/A
MONTEVIDEO     PTSUNNY   72  61  68 CALM      29.93R
PIPESTONE      CLOUDY    70  63  78 SE5       29.93R
REDWOOD FALLS  MOCLDY    72  59  63 CALM      29.91R
TRACY          CLOUDY    70  66  85 CALM      29.93S
WINDOM         CLOUDY    70  61  73 CALM      29.93S
WORTHINGTON    CLOUDY    70  61  73 E6        29.92S
$$

IAZ001>003-012>014-020>022-031-032-NEZ013-014-SDZ071-010200-
NORTHWEST IOWA

CITY           SKY/WX    TMP DP  RH WIND       PRES   REMARKS
ESTHERVILLE    CLOUDY    69  62  78 NE5       29.92R
SIOUX CITY     LGT RAIN  73  65  75 NE5       29.89R
SPENCER        CLOUDY    72  64  76 E5        29.92R
$$

ABBREVIATIONS USED IN REMARKS
   TC - TEMPERATURE IN CELSIUS
  WCI - WIND CHILL INDEX
   HX - HEAT INDEX
  VSB - VISIBILITY




USA.gov is the U.S. government's official web portal to all federal, state and local government web resources and services.